VK5KX Weather Reports


time (UTC)temp
C
wind
direction
speed
KPH
gust
KPH
rain 1hr
cm
rain 24hr
cm
rain mn
cm
humidity
%
barometer
mb
20260510060031 18 191 0.0 0.0 0.00 0.03 0.00 64 1028.6
20260510054517 18 191 0.0 4.8 0.00 0.03 0.00 63 1028.6
20260510053013 18 194 0.0 0.0 0.00 0.03 0.00 64 1028.6
20260510051512 18 194 0.0 0.0 0.00 0.03 0.00 63 1028.5
20260510050014 18 195 0.0 0.0 0.00 0.03 0.00 63 1028.6
20260510044509 18 195 1.6 4.8 0.00 0.03 0.00 62 1028.6
20260510043007 18 159 3.2 6.4 0.00 0.03 0.00 62 1028.7
20260510041504 18 270 0.0 3.2 0.00 0.03 0.00 63 1028.8
20260510040005 17 275 1.6 6.4 0.00 0.03 0.00 63 1028.8
20260510034501 17 212 1.6 6.4 0.00 0.03 0.00 64 1029.1
20260510033105 17 324 0.0 0.0 0.00 0.03 0.00 65 1029.2
20260510031603 18 325 0.0 3.2 0.00 0.03 0.00 64 1029.3
20260510030100 17 316 0.0 6.4 0.00 0.03 0.00 65 1029.4
20260510024554 17 54 0.0 0.0 0.00 0.03 0.00 64 1029.6
20260510023053 17 35 0.0 4.8 0.00 0.03 0.00 66 1030.0
20260510021641 17 270 0.0 4.8 0.00 0.03 0.00 66 1030.2
20260510020050 17 265 0.0 0.0 0.00 0.03 0.00 66 1030.3
20260510014556 17 250 0.0 1.6 0.00 0.03 0.00 68 1030.5
20260510013058 17 344 0.0 4.8 0.00 0.03 0.00 67 1030.6
20260510011545 16 314 0.0 0.0 0.00 0.03 0.00 71 1030.6
20260510010049 16 288 0.0 0.0 0.00 0.03 0.00 73 1030.6
20260510004537 16 319 0.0 3.2 0.00 0.03 0.00 77 1030.8
20260510003033 15 17 1.6 4.8 0.00 0.03 0.00 82 1030.7
20260510001533 15 19 1.6 6.4 0.00 0.03 0.00 86 1030.8
20260510000026 13 45 0.0 4.8 0.00 0.03 0.00 91 1030.8
20260509234523 13 21 1.6 9.7 0.00 0.03 0.00 94 1030.9
20260509233020 12 48 0.0 0.0 0.00 0.03 0.00 95 1030.9
20260509231518 12 48 0.0 0.0 0.00 0.03 0.00 95 1030.8
20260509230024 12 48 0.0 0.0 0.00 0.03 0.00 95 1030.7
20260509224517 11 48 0.0 0.0 0.00 0.03 0.00 95 1030.6
20260509223010 11 48 0.0 0.0 0.00 0.03 0.00 95 1030.5
20260509221508 11 48 0.0 0.0 0.00 0.03 0.00 95 1030.3
20260509220006 10 48 0.0 0.0 0.00 0.03 0.00 95 1030.1
20260509214504 10 48 0.0 0.0 0.00 0.03 0.00 95 1029.9
20260509213002 10 48 0.0 0.0 0.00 0.03 0.00 94 1029.7
20260509211502 10 48 0.0 0.0 0.00 0.03 0.00 94 1029.7
20260509210000 10 48 0.0 0.0 0.00 0.03 0.00 95 1029.7
20260509204600 10 48 0.0 0.0 0.00 0.03 0.00 95 1029.5
20260509203100 9 48 0.0 0.0 0.00 0.03 0.00 94 1029.4
20260509201604 9 48 0.0 0.0 0.00 0.03 0.00 94 1029.2
20260509200056 9 48 0.0 0.0 0.00 0.03 0.00 94 1029.0
20260509194559 9 48 0.0 0.0 0.00 0.03 0.00 94 1028.9
20260509193054 9 48 0.0 0.0 0.00 0.03 0.00 94 1028.9
20260509191605 9 48 0.0 0.0 0.00 0.03 0.00 93 1028.8
20260509190050 9 48 0.0 0.0 0.00 0.03 0.00 93 1028.7
20260509184555 9 48 0.0 0.0 0.00 0.03 0.00 94 1028.6
20260509183054 10 48 0.0 0.0 0.00 0.03 0.00 93 1028.4
20260509181551 10 48 0.0 0.0 0.00 0.03 0.00 93 1028.4
20260509180053 10 48 0.0 0.0 0.00 0.03 0.00 93 1028.4
20260509174546 10 48 0.0 0.0 0.00 0.03 0.00 93 1028.3
20260509173055 10 48 0.0 0.0 0.00 0.03 0.00 93 1028.3
20260509171542 11 48 0.0 0.0 0.00 0.03 0.00 94 1028.4
20260509170038 10 48 0.0 0.0 0.00 0.03 0.00 93 1028.4
20260509164537 10 48 0.0 0.0 0.00 0.03 0.00 93 1028.5
20260509163036 10 48 0.0 0.0 0.00 0.03 0.00 93 1028.5
20260509161537 10 48 0.0 0.0 0.00 0.03 0.00 93 1028.7
20260509160036 10 38 0.0 0.0 0.00 0.03 0.00 92 1028.8
20260509154530 10 38 0.0 0.0 0.00 0.03 0.00 92 1028.8
20260509153047 10 38 0.0 0.0 0.00 0.03 0.00 92 1028.9
20260509151527 10 38 0.0 0.0 0.00 0.03 0.00 92 1029.0
20260509150025 10 38 0.0 0.0 0.00 0.03 0.00 91 1029.0
20260509144524 10 38 0.0 0.0 0.00 0.03 0.00 92 1029.0
20260509143021 10 38 0.0 0.0 0.00 0.03 0.00 91 1029.1
20260509141530 11 38 0.0 0.0 0.00 0.03 0.03 91 1029.1
20260509140022 11 38 0.0 0.0 0.00 0.03 0.03 91 1029.1
20260509134521 11 38 0.0 0.0 0.00 0.03 0.03 91 1029.1
20260509133022 11 38 0.0 0.0 0.03 0.03 0.03 90 1029.0
20260509131522 11 38 0.0 0.0 0.03 0.03 0.03 90 1029.1
20260509130021 11 38 0.0 0.0 0.03 0.03 0.03 90 1029.2
20260509124518 12 38 0.0 0.0 0.03 0.03 0.03 90 1029.2
20260509123018 12 38 0.0 0.0 0.00 0.00 0.00 90 1029.2
20260509121517 12 38 0.0 0.0 0.00 0.00 0.00 89 1029.2
20260509120018 12 38 0.0 0.0 0.00 0.00 0.00 89 1029.0
20260509114517 12 38 0.0 4.8 0.00 0.00 0.00 90 1028.9
20260509113017 12 28 0.0 11.3 0.00 0.00 0.00 91 1028.8
20260509111516 12 107 0.0 0.0 0.00 0.00 0.00 90 1028.9
20260509110015 12 107 0.0 0.0 0.00 0.00 0.00 90 1029.0
20260509104515 12 107 0.0 0.0 0.00 0.00 0.00 89 1029.0
20260509103014 12 107 0.0 0.0 0.00 0.00 0.00 89 1029.0
20260509101515 13 107 0.0 0.0 0.00 0.00 0.00 89 1029.0
20260509100014 13 107 0.0 0.0 0.00 0.00 0.00 88 1028.9
20260509094516 13 107 0.0 0.0 0.00 0.00 0.00 88 1028.9
20260509093013 14 107 0.0 0.0 0.00 0.00 0.00 88 1028.7
20260509091512 15 107 0.0 1.6 0.00 0.00 0.00 87 1028.8
20260509090016 15 129 0.0 1.6 0.00 0.00 0.00 86 1028.7
20260509084512 16 129 0.0 1.6 0.00 0.00 0.00 86 1028.6
20260509083011 16 129 0.0 4.8 0.00 0.00 0.00 85 1028.5
20260509081512 16 129 0.0 4.8 0.00 0.00 0.00 84 1028.3
20260509080010 16 129 0.0 3.2 0.00 0.00 0.00 84 1028.2
20260509074511 17 129 1.6 6.4 0.00 0.00 0.00 83 1028.2
20260509073024 17 133 1.6 6.4 0.00 0.00 0.00 83 1028.2
20260509071509 17 129 3.2 12.9 0.00 0.00 0.00 81 1028.1
20260509070009 17 148 3.2 6.4 0.00 0.00 0.00 81 1028.1
20260509064508 17 132 1.6 6.4 0.00 0.00 0.00 80 1028.0
20260509063016 17 144 1.6 6.4 0.00 0.00 0.00 79 1028.1
20260509061505 17 160 0.0 8.0 0.00 0.00 0.00 78 1028.1